Regional Weather Roundup
Issued by NWS

Home | Current Version | Previous Version | Graphics & Text | Print | Product List | Glossary On
Versions: 1 2 3 4 5 6 7 8 9 10 11 12 13 14 15 16 17 18 19 20 21 22 23 24 25 26 27 28 29 30 31 32 33 34 35 36 37 38 39 40 41 42 43 44 45 46 47 48 49 50
000
ASUS43 KLSX 220907
RWRMO

WEATHER SUMMARY FOR MISSOURI
NATIONAL WEATHER SERVICE SPRINGFIELD MO
400 AM CDT FRI AUG 22 2014

NOTE: "FAIR" INDICATES FEW OR NO CLOUDS BELOW 12,000 FEET WITH NO
       SIGNIFICANT WEATHER AND/OR OBSTRUCTIONS TO VISIBILITY.
       CURRENT SKY AND/OR WEATHER CONDITIONS ARE NOT AVAILABLE FOR
       CHILLICOTHE AND FARMINGTON.

MOZ001>031-035>038-043-044-053-054-221000-
...NORTHERN AND WESTERN MISSOURI...

CITY           SKY/WX    TMP DP  RH WIND       PRES   REMARKS
KANSAS CTY INT MOCLDY    80  71  74 S14       29.91F
KANSAS C DTWN  MOCLDY    82  71  69 S13       29.91R
LEE`S SUMMIT   CLEAR     78  71  79 S7        29.95R
ST JOSEPH      MOCLDY    78  73  84 CALM      29.91R
CHILLICOTHE      N/A     80  72  76 VRB6      29.92R
KIRKSVILLE     PTCLDY    80  71  74 SW10      29.92S

$$
MOZ066>068-077>081-088>096-101>105-221000-
...SOUTHWEST MISSOURI...

CITY           SKY/WX    TMP DP  RH WIND       PRES   REMARKS
SPRINGFIELD    CLEAR     75  70  84 S10       30.00F
JOPLIN         CLEAR     79  71  76 S14       29.97F

$$
MOZ032>034-039>042-045>050-055>058-069>072-221000-
...CENTRAL MISSOURI...

CITY           SKY/WX    TMP DP  RH WIND       PRES   REMARKS
COLUMBIA       CLEAR     76  70  82 S8        29.96S
JEFFERSON CITY CLEAR     78  69  73 S5        29.95S
ROLLA          CLEAR     74  68  81 SW12      29.98F
SEDALIA        CLEAR     78  70  76 SW10      29.96S
WHITEMAN AFB   CLEAR     76  54  46 SW8       29.94S
OSAGE BEACH    CLEAR     75  68  78 S6        29.97F

$$
MOZ051-052-059>065-221000-
...EAST CENTRAL MISSOURI...

CITY           SKY/WX    TMP DP  RH WIND       PRES   REMARKS
ST LOUIS INTL  CLEAR     82  68  62 SW13      29.95S
SPIRIT OF STL  CLEAR     77  68  73 SW6       29.94S
ST CHARLES     CLEAR     77  70  79 SW3       29.93S

$$
MOZ072>076-082>087-097>100-106>115-221000-
...SOUTH CENTRAL AND SOUTHEAST MISSOURI...

CITY           SKY/WX    TMP DP  RH WIND       PRES   REMARKS
CAPE GIRARDEAU CLEAR     73  70  90 S5        29.98F
FARMINGTON     CLEAR     75  70  83 SW6       30.02S
POPLAR BLUFF   CLEAR     73  69  87 CALM      29.98F
WEST PLAINS    CLEAR     73  68  84 S3        30.04F

$$



USA.gov is the U.S. government's official web portal to all federal, state and local government web resources and services.